Regional Weather Roundup
Issued by NWS

Home | Current Version | Previous Version | Text Only | Print | Product List | Glossary Off
Versions: 1 2 3 4 5 6 7 8 9 10 11 12 13 14 15 16 17 18 19 20 21 22 23 24 25 26 27 28 29 30 31 32 33 34 35 36 37 38 39 40 41 42 43 44 45 46 47 48 49 50

000
ASUS45 KBOI 281310
RWRID
WEATHER ROUNDUP FOR IDAHO
NATIONAL WEATHER SERVICE BOISE ID
600 AM MST WED JAN 28 2015

NOTE: "FAIR" INDICATES FEW OR NO CLOUDS BELOW 12000 FEET
WITH NO SIGNIFICANT WEATHER AND/OR OBSTRUCTIONS TO VISIBILITY

IDZ012-014-281400-
SOUTHWEST IDAHO


CITY           SKY/WX    TMP DP  RH WIND       PRES   REMARKS
BOISE          FOG       33  33 100 CALM      30.27R VSB 1/4
CALDWELL       CLOUDY    30  25  80 CALM      30.30R VSB 1/2
MOUNTAIN HOME  FRZ DRZL  32  32 100 W8        30.26R VSB 1/2 WCI  25
$$

IDZ016-017-281400-
SOUTHCENTRAL IDAHO


CITY           SKY/WX    TMP DP  RH WIND       PRES   REMARKS
BURLEY         CLOUDY    39  37  92 W3        30.21R
JEROME         FOG       34  33  96 SW10      30.23R VSB 1/4 WCI  26
TWIN FALLS     CLOUDY    40  36  86 SW12      30.23R WCI  33
$$

IDZ019>023-281400-
SOUTHEAST IDAHO


CITY           SKY/WX    TMP DP  RH WIND       PRES   REMARKS
IDAHO FALLS    FOG       36  36 100 SW12      30.19R VSB 1/2 WCI  28
POCATELLO      FOG       38  38 100 SW12      30.22R VSB 1/4 WCI  30
REXBURG        LGT RAIN  51  35  54 SW6       30.18R VSB 1
$$

IDZ006-010-011-018-031-032-281400-
CENTRAL IDAHO MOUNTAINS


CITY           SKY/WX    TMP DP  RH WIND       PRES   REMARKS
MCCALL         CLOUDY    31  30  96 CALM      30.22R
HAILEY         CLOUDY    34  34 100 CALM      30.20R
STANLEY          N/A     33  30  88 CALM      30.22R
SALMON         MOCLDY   N/A N/A N/A N5        30.22R
CHALLIS        CLOUDY    31  30  96 SW3       30.19R
$$

IDZ002-004-006-007-026-281400-
NORTHERN IDAHO


CITY           SKY/WX    TMP DP  RH WIND       PRES   REMARKS
LEWISTON       PTCLDY    36  35  96 CALM      30.30R
LOWELL           N/A     35  33  92 N3        30.34R
COEUR D`ALENE  CLOUDY    36  34  93 W3        30.25R
MULLAN PASS    FOG       28  28 100 SW5       30.17R VSB 3/4 WCI  23
$$


USA.gov is the U.S. government's official web portal to all federal, state and local government web resources and services.